Find Kosmos-1428

NORAD ID: 13757 Int'l Des: 1983-001 Owner: VMF Country: SU operational
LEOCIRCULARPOLAR

实时位置

正在加载3D地球...

关于 Kosmos-1428

正在加载描述...

即将过境

Passes for default location (London). Set your location on the main map for personalized predictions.

高度历史

Loading altitude history...

两行轨道根数

1 13757U 83001A 26135.25709517 .00000038 00000-0 23083-4 0 9999
2 13757 82.9128 66.3293 0034182 337.2782 176.5915 13.77086656177169
Epoch: May 15, 2026 • Age: 18 hours

当前状态

高度 1000.9 km
速度 7.34 km/s
星下点 11.90°N, 15.43°E
发射日期 Jan 12, 1983
运行时间 43.3 years
类型 other

技术详情

分类 Payload
质量 800.00 kg
干质量 800.00 kg
总质量 800.00 kg
长度 5.00 m
直径 2.10 m
跨度 17.00 m
形状 Cyl + Ant
制造商 OAZ
平台类型 KAUR-1 11F627
阶段状态 In Orbit
所有者/国家 VMF/SU

Most Searched